Flag for U.S.A. Weather past 2 weeks in Akron, Ohio, U.S.A.

Now
72 °F

Broken clouds.


Feels Like: 77 °F
Forecast: 58 / 74 °F
Wind: 12 mph from North

Location: Akron Fulton International Airport

Current Time: Jul 24, 2014 at 4:10:31 PM

Latest Report: Jul 24, 2014 at 2:54 PM


Visibility: 10 mi

Pressure: 30.03 "Hg

Humidity: 53%

Dew point: 54 °F

Location of AkronLocation

Historic Weather in Akron — Graph

°F

Akron temperature yesterday

Maximum temperature yesterday: 78 °F (at 10:54 AM)
Minimum temperature yesterday: 61 °F (at 11:54 PM)
Average temperature yesterday: 71 °F

Past Weeks' High & Low Weather Summary

 TemperatureHumidityPressure
High88 °F (Jul 13, 2:54 PM)96% (Jul 10, 6:54 AM)30.24 "Hg (Jul 10, 6:54 AM)
Low51 °F (Jul 18, 4:54 AM)33% (Jul 18, 1:54 PM)29.72 "Hg (Jul 15, 3:54 AM)
Average71 °F71%30.03 "Hg
* Reported Jul 9 2:54 PM — Jul 24 2:54 PM, Akron, Weather by CustomWeather, © 2014

Note: Actual official high and low records may vary slightly from our data, if they occured in-between our weather recording intervals... More about our weather records

Advertising

Akron weather history for previous 24 hours

 ConditionsComfort  
Time TempWeatherWind HumidityBarometerVisibility
2:54 PM
Jul 24
72 °FBroken clouds.12 mph53%30.03 "Hg10 mi
1:54 PM73 °FPartly sunny.14 mph53%30.03 "Hg10 mi
12:54 PM72 °FPartly sunny.5 mph53%30.03 "Hg10 mi
11:54 AM71 °FPartly sunny.9 mph57%30.04 "Hg10 mi
10:54 AM70 °FPartly sunny.10 mph57%30.04 "Hg10 mi
9:54 AM69 °FPassing clouds.10 mph61%30.03 "Hg10 mi
8:54 AM67 °FSunny.7 mph73%30.04 "Hg10 mi
7:54 AM60 °FSunny.No wind86%30.03 "Hg10 mi
6:54 AM57 °FClear.6 mph90%30.03 "Hg10 mi
5:54 AM57 °FClear.3 mph93%30.02 "Hg10 mi
4:54 AM57 °FClear.3 mph90%30.01 "Hg10 mi
3:54 AM59 °FPassing clouds.No wind90%30.01 "Hg10 mi
2:54 AM59 °FPassing clouds.6 mph90%30.00 "Hg10 mi
1:54 AM60 °FPassing clouds.3 mph86%30.01 "Hg10 mi
12:54 AM60 °FClear.5 mph86%30.02 "Hg10 mi
11:54 PM
Jul 23
61 °FClear.3 mph83%30.01 "Hg10 mi
10:54 PM63 °FPartly cloudy.7 mph81%30.02 "Hg10 mi
9:54 PM65 °FOvercast.8 mph76%30.03 "Hg10 mi
8:54 PM65 °FOvercast.13 mph76%30.01 "Hg10 mi
7:54 PM67 °FOvercast.9 mph73%30.01 "Hg10 mi
6:54 PM67 °FOvercast.10 mph76%30.00 "Hg10 mi
5:54 PM68 °FOvercast.10 mph78%29.98 "Hg10 mi
4:54 PM69 °FMostly cloudy.13 mph76%29.98 "Hg10 mi
Weather by CustomWeather, © 2014

See weather overviewHow to use our weather pages